OpenBCM V1.13 (Linux)

Packet Radio Mailbox

DB0FHN

[JN59NK Nuernberg]

 Login: GUEST





  
I6KZR  > KEPLER   10.03.03 22:47l 317 Lines 15752 Bytes #999 (0) @ WW
BID : 28377_IK6WID
Read: DB0FHN GUEST
Subj: 2L Keplerian Elements #069
Path: DB0FHN<DB0RGB<OK0PPL<RZ6HXA<SP7MGD<IK6PYS<I6ZLO<IK6WID
Sent: 030310/2014Z @:IK6WID.#AP.IMAR.ITA.EU #:28377 [MONTE URANO]  FBB7.00i
From: I6KZR@IK6WID.#AP.IMAR.ITA.EU
To  : KEPLER@WW


OSCAR 7
1 07530U 74089B   03068.68565734 -.00000029 +00000-0 +10000-3 0 01789
2 07530 101.7564 116.2903 0012286 040.9660 319.2332 12.53564747295583
GOES 2
1 10061U 77048A   03062.76944659 -.00000220  00000-0  00000+0 0  1069
2 10061  14.1377  13.3235 0012624 200.8418 159.1157  0.99396945 38967
GOES 3
1 10953U 78062A   03068.88005909 -.00000095  00000-0  00000+0 0  9474
2 10953  13.4191  17.0853 0005985 344.3801  15.6077  1.00279693 43698
GOES 6
1 14050U 83041A   03063.00530959 +.00000023 +00000-0 +10000-3 0 04285
2 14050 010.4192 035.4742 0004593 345.1505 014.8975 01.00306906130775
OSCAR 10
1 14129U 83058B   03068.35062218 -.00000343 +00000-0 +10000-3 0 09204
2 14129 026.0033 161.1978 6019903 333.9713 005.3802 02.05870043120452
OSCAR 11 (UoSAT 2)
1 14781U 84021B   03068.97315155 +.00002152 +00000-0 +30499-3 0 01113
2 14781 098.1189 043.0492 0009534 141.6839 218.5052 14.78057015019106
NOAA 10
1 16969U 86073A   03069.53069395  .00000236  00000-0  11506-3 0  6919
2 16969  98.7321  63.6029 0013327  31.8755 328.3228 14.27072654856751
GOES 7
1 17561U 87022A   03065.34493427  .00000041  00000-0  10000-3 0  8784
2 17561   7.6311  55.4507 0005432 264.8245 147.8010  1.00257206 41909
COSMOS 1861
1 18129U 87054A   03068.89948121 +.00000088 +00000-0 +79247-4 0 02154
2 18129 082.9261 132.2687 0011350 165.2686 194.8796 13.72703096787165
EUTELSAT 1-F4 (ECS 4)
1 18351U 87078B   03068.19557603 -.00000173  00000-0  00000+0 0   454
2 18351   7.2342  58.5580 0006921 201.1785 158.9184  0.98690511 42866
NOAA 11
1 19531U 88089A   03069.52938485  .00000247  00000-0  15186-3 0  5289
2 19531  98.8972 150.8427 0012138 142.9521 217.2492 14.14547893745627
ASTRA 1A
1 19688U 88109B   03068.75530837 +.00000038 +00000-0 +10000-3 0 05860
2 19688 001.4415 094.5851 0004350 243.5169 106.0198 01.00273690032382
OSCAR 14 (UOSAT 3)
1 20437U 90005B   03069.14339054  .00000187  00000-0  86293-4 0  1829
2 20437  98.2689 111.8187 0011067 139.0091 221.1924 14.31244739685294
OSCAR 15 (UOSAT 4)
1 20438U 90005C   03068.89737151 +.00000127 +00000-0 +64673-4 0 07841
2 20438 098.2450 100.6222 0010175 150.6441 209.5314 14.30203430684928
OSCAR 16 (PACSAT)
1 20439U 90005D   03069.22497405  .00000231  00000-0  10268-3 0  8628
2 20439  98.3126 123.6941 0011286 146.0942 214.0967 14.31480416685346
OSCAR 17 (DOVE)
1 20440U 90005E   03068.93052865 +.00000264 +00000-0 +11448-3 0 07383
2 20440 098.3351 127.3515 0011140 145.3791 214.8121 14.31758785685379
OSCAR 18 (WEBERSAT)
1 20441U 90005F   03069.55411891  .00000233  00000-0  10309-3 0   307
2 20441  98.3300 127.1463 0012061 144.9717 215.2264 14.31561849685444
OSCAR 19 (LUSAT)
1 20442U 90005G   03069.25071633  .00000229  00000-0  10138-3 0  9811
2 20442  98.3441 129.9156 0012021 144.8559 215.3416 14.31724973685459
JAS 1B (FUJI 2)
1 20480U 90013C   03068.95701759 -.00000060 +00000-0 -56140-4 0 04866
2 20480 099.0490 028.0565 0540220 320.0019 036.2438 12.83330302613002
HST
1 20580U 90037B   03068.67219678  .00003321  00000-0  26198-3 0  3539
2 20580  28.4677 273.9642 0004343 120.8452 286.0929 14.97911029505504
EUTELSAT 2-F1
1 20777U 90079B   03066.75871308 -.00000097  00000-0  10000-3 0   433
2 20777   3.5453  84.3866 0003384 325.3353 104.4224  1.00273224 26277
FENGYUN 1B
1 20788U 90081A   03068.94333534 +.00000462 +00000-0 +33047-3 0 09255
2 20788 099.0292 050.9372 0016223 173.6220 186.5156 14.02148554640252
EUTELSAT 2-F2
1 21056U 91003B   03068.64941512  .00000124  00000-0  10000-3 0  6253
2 21056   2.7779  87.7074 0003964 293.4680  67.9879  1.00275756 32076
INFORMATOR 1
1 21087U 91006A   03068.69772858 +.00000079 +00000-0 +67083-4 0 06073
2 21087 082.9428 303.2435 0034119 194.9835 165.0298 13.74928757607513
COSMOS 2123
1 21089U 91007A   03068.75980863 +.00000075 +00000-0 +63019-4 0 05171
2 21089 082.9249 167.1459 0027662 232.3718 127.4927 13.74406321606429
ASTRA 1B
1 21139U 91015A   03064.00000000  .00000111  00000-0  10000-3 0  1635
2 21139   0.0122 319.8851 0002995  65.1991 156.4174  1.00273184 32339
METEOSAT 5 (MOP 2)
1 21140U 91015B   03068.97052191  .00000021  00000-0  10000-3 0  7518
2 21140   5.6741  69.8132 0000862   3.9652 145.9401  1.00278643 46244
NOAA 12
1 21263U 91032A   03069.56397044  .00000417  00000-0  19637-3 0  9974
2 21263  98.6289  58.8583 0012539 328.1400  31.9020 14.25096090614061
OSCAR 22 (UoSAT 5)
1 21575U 91050B   03068.97493728 +.00000434 +00000-0 +15318-3 0 07621
2 21575 098.1430 060.1205 0008541 074.6268 285.5864 14.39168768611078
METEOR 3-5
1 21655U 91056A   03069.50273397  .00000051  00000-0  10000-3 0  5057
2 21655  82.5567  24.7763 0013930 144.3132 215.8924 13.16981276556109
UARS
1 21701U 91063B   03069.31834105  .00001384  00000-0  12110-3 0  8435
2 21701  56.9824 312.1144 0003962 104.1965 255.9517 15.02906036628685
EUTELSAT 2-F3
1 21803U 91083A   03069.00237270  .00000133  00000-0  10000-3 0  5283
2 21803   2.6446  88.9487 0003607 282.1130 178.7220  1.00274947 37196
INMARSAT 2-F3
1 21814U 91084B   03066.50953541  .00000112  00000-0  10000-3 0  6282
2 21814   1.7790  58.6260 0002723 287.2400 220.4144  1.00276480 41062
INMARSAT 2-F4
1 21940U 92021B   03062.44518345 -.00000365  00000-0  10000-3 0  5765
2 21940   2.3916  20.0078 0002025 329.0460  81.0054  1.00267465 39819
EUTELSAT 2-F4
1 22028U 92041B   03066.69672885 -.00000099 +00000-0 +10000-3 0 03364
2 22028 001.7587 092.2084 0006263 238.7918 072.4925 01.00271519031946
OSCAR 23 (KITSAT 1)
1 22077U 92052B   03069.54773696 -.00000037  00000-0  10000-3 0  1606
2 22077  66.0862  83.8902 0015753 268.7099  91.2115 12.86409258496878
ASTRA 1C
1 22653U 93031A   03064.00000000  .00000111  00000-0  10000-3 0  7903
2 22653   0.0122 319.8851 0002995  65.1991 156.4044  1.00273184 31033
METEOR 2-21
1 22782U 93055A   03068.62688580  .00000004  00000-0 -94494-5 0  5371
2 22782  82.5505 199.7810 0021111 293.8597  66.0356 13.83532454480727
KITSAT B
1 22825U 93061C   03068.93855332 +.00000170 +00000-0 +83526-4 0 05063
2 22825 098.2726 097.6475 0008086 195.3052 164.7887 14.28950069492640
POSAT 1
1 22826U 93061D   03068.61575237 +.00000195 +00000-0 +92802-4 0 03345
2 22826 098.2720 098.4628 0008236 198.7493 161.3389 14.29173603492649
ITAMSAT
1 22828U 93061F   03068.59153633 +.00000181 +00000-0 +86759-4 0 04447
2 22828 098.2707 098.7070 0009573 176.1516 183.9738 14.29514576460844
EYESAT A
1 22829U 93061G   03068.59724587  .00000294  00000-0  13053-3 0  4698
2 22829  98.2716  99.3274 0009361 176.6932 183.4311 14.29778356492777
METEOSAT 6
1 22912U 93073B   03069.01360534  .00000065  00000-0  00000+0 0  7165
2 22912   2.7254  82.4466 0002225 180.4066 278.5762  1.00271495 32498
GOES 8
1 23051U 94022A   03065.39439721 -.00000254  00000-0  00000+0 0  6358
2 23051   0.3360 102.2864 0001413 300.0690 188.7256  1.00272205 39968
ASTRA 1D
1 23331U 94070A   03064.83099755  .00000134  00000-0  10000-3 0  8239
2 23331   0.0964 257.5513 0003630  95.8331 133.0925  1.00276202 31021
RADIO ROSTO
1 23439U 94085A   03068.80585441 -.00000040 +00000-0 +72573-4 0 06898
2 23439 064.8188 010.3737 0146499 111.3334 250.3299 11.27547805337764
NOAA 14
1 23455U 94089A   03069.50927673  .00000218  00000-0  14139-3 0  5501
2 23455  99.1869  88.6018 0009444 169.2629 190.8750 14.13305148422299
HIMAWARI 5 (GMS 5)
1 23522U 95011B   03069.14188381 -.00000276  00000-0  00000+0 0  1382
2 23522   1.8152  83.5623 0000124   7.7519 267.4402  1.00270583 29086
HOT BIRD 1
1 23537U 95016B   03055.93642088  .00000074  00000-0  10000-3 0  5388
2 23537   0.0930 158.4148 0007489 128.2319 217.9136  1.00274434 29037
GOES 9
1 23581U 95025A   03066.39968270  .00000083  00000-0  00000+0 0  5490
2 23581   0.2182 276.3553 0011901 248.8169 334.0024  1.00065912 28533
INMARSAT 3-F1
1 23839U 96020A   03068.78945861  .00000020  00000-0  10000-3 0  8835
2 23839   0.0519 335.6736 0003665 359.2941 180.1592  1.00273291 25400
ASTRA 1F
1 23842U 96021A   03064.00000000  .00000111  00000-0  10000-3 0  5623
2 23842   0.0122 319.8851 0002995  65.1991 156.4263  1.00273184 25265
JAS 2
1 24278U 96046B   03068.91875140 +.00000091 +00000-0 +12731-3 0 05768
2 24278 098.5411 217.5164 0350751 166.2072 194.8952 13.52875070323929
UNAMSAT
1 24305U 96052B   03068.93918808 +.00000205 +00000-0 +20364-3 0 06711
2 24305 082.9253 248.4456 0029127 145.9511 214.3502 13.73454913326148
INMARSAT 3-F2
1 24307U 96053A   03067.96582736 -.00000120  00000-0  00000+0 0   928
2 24307   0.0475 344.5087 0004994  10.6448 143.2930  1.00272604 23801
HOT BIRD 2
1 24665U 96067A   03054.87288413  .00000076  00000-0  10000-3 0  3445
2 24665   0.0674 252.7220 0007661  70.4027 157.3662  1.00270188 23318
INMARSAT 3-F3
1 24674U 96070A   03065.60077771  .00000037  00000-0  10000-3 0    34
2 24674   0.0465 312.2906 0003294 356.7126 249.2867  1.00275029 22740
GOES 10
1 24786U 97019A   03068.26725914  .00000094  00000-0  00000+0 0  5804
2 24786   0.1802 103.1844 0002262 282.4246 101.6159  1.00266156 21521
INMARSAT 3-F4
1 24819U 97027A   03064.70598575 -.00000291  00000-0  10000-3 0  8938
2 24819   0.0564 302.6467 0004680  60.0221   0.5213  1.00271137 21161
FENGYUN 2A
1 24834U 97029A   03068.81245803 -.00000194 +00000-0 +00000-0 0 09777
2 24834 002.6199 088.2398 0001122 240.3967 217.1528 01.00278031021039
HOT BIRD 3
1 24931U 97049A   03054.87288413  .00000075  00000-0  10000-3 0  4284
2 24931   0.1004 298.5607 0010424  36.2408 145.6862  1.00270404 20133
METEOSAT 7
1 24932U 97049B   03068.96950559  .00000000  00000-0  00000+0 0  2592
2 24932   0.2568  74.2476 0001169 225.2499 217.0209  1.00263562 20214
ASTRA 1G
1 25071U 97076A   03064.00000000  .00000111  00000-0  10000-3 0  3943
2 25071   0.0122 319.8851 0002995  65.1991 156.4370  1.00273184 19285
